Change the Weather History Date:

Friday, November 29, 2013

  Actual Average (KBOS) Record (KBOS)
Temperature  
Mean Temperature 24 °F 41 °F  
Max Temperature 30 °F 47 °F 69 °F (1990)
Min Temperature 19 °F 34 °F 8 °F (1875)
Degree Days  
Heating Degree Days 40 25  
Month to date heating degree days 585  
Since 1 July heating degree days 1032  
Cooling Degree Days 0 0  
Month to date cooling degree days 0  
Year to date cooling degree days 747  
Moisture  
Dew Point 8 °F    
Average Humidity 53    
Maximum Humidity 71    
Minimum Humidity 38    
Precipitation  
Precipitation 0.00 in 0.14 in 2.34 in (1963)
Month to date precipitation 3.85  
Year to date precipitation 39.85  
Sea Level Pressure  
Sea Level Pressure 30.60 in    
Wind  
Wind Speed 9 mph (NW)    
Max Wind Speed 13 mph    
Max Gust Speed 21 mph    
T = Trace of Precipitation, MM = Missing Value Source: NWS Daily Summary

Daily Weather History Graph

Daily Weather History Graph

Search for Another Location

Airport or City:

Trip Planner

Search our weather history database for the weather conditions in past years. The results will help you decide how hot, cold, wet, or windy it might be!

Date:

Astronomy

Nov. 29, 2013 Rise Set
Actual Time 6:51 AM EST 4:13 PM EST
Civil Twilight 6:20 AM EST 4:45 PM EST
Nautical Twilight 5:45 AM EST 5:19 PM EST
Astronomical Twilight 5:12 AM EST 5:53 PM EST
Moon 2:50 AM EST (11/29) 1:59 PM EST (11/29)
Length of Visible Light 10h 24m
Length of Day
9h 22m
Waning Crescent, 14% of the Moon is Illuminated
Nov 29
Waning Crescent
Dec 2
New
Dec 9
First Quarter
Dec 17
Full
Dec 25
Last Quarter

Hourly Weather History & Observations

Time (EST) Temp. Windchill Dew Point Humidity Pressure Visibility Wind Dir Wind Speed Gust Speed Precip Events Conditions
12:54 AM 21.0 °F 8.6 °F 10.9 °F 65% 30.46 in - West 12.7 mph - N/A   Unknown
1:54 AM 21.9 °F 12.5 °F 10.9 °F 63% 30.48 in - West 8.1 mph - N/A   Unknown
2:54 AM 23.0 °F 14.7 °F 12.0 °F 63% 30.48 in - West 6.9 mph - N/A   Unknown
3:54 AM 23.0 °F 13.9 °F 12.0 °F 63% 30.48 in - West 8.1 mph - N/A   Unknown
4:54 AM 23.0 °F 13.9 °F 12.9 °F 65% 30.50 in - West 8.1 mph - N/A   Unknown
5:54 AM 23.0 °F 13.1 °F 12.9 °F 65% 30.51 in - West 9.2 mph - N/A   Unknown
6:54 AM 21.0 °F 12.4 °F 12.9 °F 71% 30.53 in - WNW 6.9 mph - N/A   Unknown
7:54 AM 23.0 °F 13.9 °F 14.0 °F 68% 30.56 in - NW 8.1 mph - N/A   Unknown
8:54 AM 25.0 °F 16.3 °F 14.0 °F 63% 30.58 in - NW 8.1 mph - N/A   Unknown
1:54 PM 30.9 °F 21.7 °F 8.1 °F 38% 30.56 in - NW 11.5 mph 20.7 mph N/A   Unknown
2:54 PM 30.0 °F 20.5 °F 7.0 °F 38% 30.58 in - WNW 11.5 mph 20.7 mph N/A   Unknown
3:54 PM 28.9 °F 21.1 °F 7.0 °F 40% 30.60 in - NW 8.1 mph - N/A   Unknown
4:54 PM 27.0 °F 18.0 °F 6.1 °F 41% 30.63 in - NW 9.2 mph - N/A   Unknown
5:54 PM 26.1 °F 16.8 °F 5.0 °F 41% 30.66 in - NNW 9.2 mph - N/A   Unknown
6:54 PM 24.1 °F 15.2 °F 1.9 °F 38% 30.69 in - NNW 8.1 mph - N/A   Unknown
7:54 PM 23.0 °F 13.1 °F 3.0 °F 42% 30.70 in - North 9.2 mph - N/A   Unknown
8:54 PM 21.9 °F 11.0 °F 3.0 °F 44% 30.71 in - North 10.4 mph - N/A   Unknown
9:54 PM 21.0 °F 11.4 °F 5.0 °F 50% 30.72 in - North 8.1 mph 20.7 mph N/A   Unknown
10:54 PM 19.9 °F 10.1 °F 3.9 °F 50% 30.75 in - North 8.1 mph - N/A   Unknown
11:54 PM 19.0 °F 7.5 °F 5.0 °F 54% 30.75 in - NNW 10.4 mph - N/A   Unknown